When you browse on this site, cookies collect data to enhance your experience and personalize the content and advertising you see.
Visit our Privacy Policy to learn more. By continuing to use the site, you agree to this use of cookies and data.
  • Em Portugal
  • Lista de países
  • Para 7 dias
  • Temperatura da água
  • Mapa do tempo
  • Widgets de tempo
  • user-avatar
    Iniciar Sessão

    Previsão horária em Ochury

    Hoje, 6 Junho, Sábado

    Tempo Temperatura Precipitação Vento Pressão Humidade
    00:00 +7°C° 0 mm 4 m/s 729 mmHg 91%
    01:00 +7°C° 0.1 mm 5 m/s 729 mmHg 90%
    02:00 +7°C° 0.1 mm 5 m/s 728 mmHg 90%
    03:00 +5°C° 0.1 mm 6 m/s 728 mmHg 90%
    04:00 +5°C° 0.5 mm 6 m/s 729 mmHg 90%
    05:00 +7°C° 0.5 mm 6 m/s 729 mmHg 90%
    06:00 +5°C° 0 mm 6 m/s 730 mmHg 90%
    07:00 +5°C° 0.9 mm 6 m/s 730 mmHg 91%
    08:00 +7°C° 0.9 mm 5 m/s 730 mmHg 91%
    09:00 +7°C° 0.9 mm 5 m/s 730 mmHg 92%
    10:00 +7°C° 2.4 mm 5 m/s 731 mmHg 93%
    11:00 +7°C° 2.4 mm 5 m/s 731 mmHg 93%
    12:00 +5°C° 0 mm 6 m/s 732 mmHg 93%
    13:00 +5°C° 3.7 mm 6 m/s 732 mmHg 94%
    14:00 +5°C° 3.7 mm 6 m/s 732 mmHg 94%
    15:00 +5°C° 3.7 mm 7 m/s 732 mmHg 95%
    16:00 +5°C° 3.9 mm 7 m/s 733 mmHg 95%
    17:00 +5°C° 3.9 mm 7 m/s 733 mmHg 95%
    18:00 +5°C° 3.9 mm 7 m/s 734 mmHg 95%
    19:00 +5°C° 2.4 mm 7 m/s 734 mmHg 95%
    20:00 +5°C° 2.4 mm 6 m/s 734 mmHg 95%
    21:00 +7°C° 2.4 mm 6 m/s 735 mmHg 95%
    22:00 +7°C° 1.2 mm 5 m/s 735 mmHg 94%
    23:00 +7°C° 1.2 mm 5 m/s 735 mmHg 94%

    Amanhã, 7 Junho, Domingo

    Tempo Temperatura Precipitação Vento Pressão Humidade
    00:00 +7°C° 1.2 mm 5 m/s 736 mmHg 93%
    01:00 +7°C° 0.2 mm 5 m/s 736 mmHg 92%
    02:00 +7°C° 0.2 mm 5 m/s 736 mmHg 92%
    03:00 +7°C° 0.2 mm 4 m/s 736 mmHg 91%
    04:00 +8°C° 0.1 mm 4 m/s 736 mmHg 90%
    05:00 +8°C° 0.1 mm 4 m/s 737 mmHg 89%
    06:00 +10°C° 0.1 mm 4 m/s 737 mmHg 88%
    07:00 +10°C° 0.3 mm 5 m/s 737 mmHg 84%
    08:00 +11°C° 0.3 mm 6 m/s 736 mmHg 80%
    09:00 +13°C° 0.3 mm 6 m/s 736 mmHg 77%
    10:00 +11°C° 0.7 mm 6 m/s 736 mmHg 80%
    11:00 +12°C° 0.7 mm 5 m/s 736 mmHg 83%
    12:00 +11°C° 0.7 mm 4 m/s 736 mmHg 86%
    13:00 +12°C° 0.2 mm 5 m/s 736 mmHg 83%
    14:00 +13°C° 0.2 mm 6 m/s 736 mmHg 80%
    15:00 +13°C° 0.2 mm 6 m/s 735 mmHg 77%
    16:00 +13°C° 0.4 mm 6 m/s 736 mmHg 78%
    17:00 +13°C° 0.4 mm 6 m/s 736 mmHg 79%
    18:00 +13°C° 0.4 mm 5 m/s 736 mmHg 80%
    19:00 +12°C° 0.6 mm 5 m/s 736 mmHg 85%
    20:00 +11°C° 0.6 mm 4 m/s 736 mmHg 89%
    21:00 +10°C° 0.6 mm 3 m/s 736 mmHg 94%
    22:00 +10°C° 0.9 mm 3 m/s 736 mmHg 94%
    23:00 +10°C° 0.9 mm 3 m/s 736 mmHg 94%

    Depois de amanhã, 8 Junho, Segunda-feira

    Tempo Temperatura Precipitação Vento Pressão Humidade
    00:00 +8°C° 0.9 mm 4 m/s 736 mmHg 94%
    01:00 +9°C° 0.3 mm 3 m/s 736 mmHg 94%
    02:00 +8°C° 0.3 mm 3 m/s 736 mmHg 94%
    03:00 +8°C° 0.3 mm 3 m/s 735 mmHg 94%
    04:00 +9°C° 0.2 mm 3 m/s 736 mmHg 92%
    05:00 +10°C° 0.2 mm 3 m/s 736 mmHg 90%
    06:00 +11°C° 0.2 mm 3 m/s 736 mmHg 88%
    07:00 +12°C° 0.3 mm 3 m/s 736 mmHg 81%
    08:00 +13°C° 0.3 mm 3 m/s 736 mmHg 73%
    09:00 +14°C° 0.3 mm 3 m/s 736 mmHg 66%
    10:00 +16°C° 0.2 mm 3 m/s 736 mmHg 63%
    11:00 +16°C° 0.2 mm 3 m/s 736 mmHg 59%
    12:00 +17°C° 0.2 mm 4 m/s 735 mmHg 56%
    13:00 +18°C° 0 mm 3 m/s 735 mmHg 53%
    14:00 +18°C° 0 mm 3 m/s 735 mmHg 51%
    15:00 +19°C° 0 mm 3 m/s 735 mmHg 49%
    16:00 +18°C° 0 mm 3 m/s 735 mmHg 53%
    17:00 +18°C° 0 mm 2 m/s 735 mmHg 58%
    18:00 +18°C° 0 mm 2 m/s 735 mmHg 63%
    19:00 +16°C° 0 mm 2 m/s 735 mmHg 65%
    20:00 +14°C° 0 mm 3 m/s 735 mmHg 66%
    21:00 +12°C° 0 mm 3 m/s 735 mmHg 68%
    22:00 +12°C° 0 mm 3 m/s 734 mmHg 69%
    23:00 +11°C° 0 mm 4 m/s 734 mmHg 70%

    9 Junho, Terça-feira

    Tempo Temperatura Precipitação Vento Pressão Humidade
    00:00 +10°C° 0 mm 4 m/s 733 mmHg 71%
    01:00 +10°C° 0.5 mm 4 m/s 732 mmHg 77%
    02:00 +10°C° 0.5 mm 4 m/s 731 mmHg 83%
    03:00 +10°C° 0.5 mm 4 m/s 731 mmHg 89%
    04:00 +10°C° 1.9 mm 4 m/s 730 mmHg 90%
    05:00 +9°C° 1.9 mm 5 m/s 730 mmHg 92%
    06:00 +10°C° 1.9 mm 5 m/s 730 mmHg 93%
    07:00 +10°C° 2.7 mm 5 m/s 730 mmHg 93%
    08:00 +12°C° 2.7 mm 5 m/s 730 mmHg 93%
    09:00 +12°C° 2.7 mm 5 m/s 730 mmHg 93%
    10:00 +13°C° 1.3 mm 5 m/s 730 mmHg 92%
    11:00 +14°C° 1.3 mm 5 m/s 731 mmHg 91%
    12:00 +14°C° 1.3 mm 5 m/s 731 mmHg 90%
    13:00 +14°C° 1.6 mm 4 m/s 731 mmHg 90%
    14:00 +14°C° 1.6 mm 3 m/s 732 mmHg 91%
    15:00 +15°C° 1.6 mm 2 m/s 732 mmHg 91%
    16:00 +14°C° 1.1 mm 2 m/s 732 mmHg 92%
    17:00 +14°C° 1.1 mm 2 m/s 732 mmHg 93%
    18:00 +14°C° 1.1 mm 1 m/s 732 mmHg 95%
    19:00 +13°C° 0.1 mm 1 m/s 733 mmHg 94%
    20:00 +13°C° 0.1 mm 1 m/s 733 mmHg 94%
    21:00 +12°C° 0.1 mm 1 m/s 733 mmHg 93%
    22:00 +12°C° 0 mm 1 m/s 734 mmHg 93%
    23:00 +12°C° 0 mm 1 m/s 734 mmHg 92%

    10 Junho, Quarta-feira

    Tempo Temperatura Precipitação Vento Pressão Humidade
    00:00 +11°C° 0 mm 1 m/s 734 mmHg 92%
    01:00 +11°C° 0 mm 1 m/s 734 mmHg 92%
    02:00 +10°C° 0 mm 1 m/s 734 mmHg 91%
    03:00 +10°C° 0 mm 1 m/s 734 mmHg 91%
    04:00 +11°C° 0 mm 1 m/s 735 mmHg 90%
    05:00 +12°C° 0 mm 1 m/s 735 mmHg 88%
    06:00 +13°C° 0 mm 1 m/s 735 mmHg 87%
    07:00 +14°C° 0 mm 1 m/s 735 mmHg 81%
    08:00 +15°C° 0 mm 1 m/s 735 mmHg 74%
    09:00 +16°C° 0 mm 2 m/s 735 mmHg 68%
    10:00 +17°C° 0.1 mm 2 m/s 735 mmHg 64%
    11:00 +18°C° 0.1 mm 2 m/s 736 mmHg 59%
    12:00 +19°C° 0.1 mm 2 m/s 736 mmHg 54%
    13:00 +19°C° 0 mm 2 m/s 735 mmHg 55%
    14:00 +19°C° 0 mm 2 m/s 735 mmHg 55%
    15:00 +19°C° 0 mm 2 m/s 735 mmHg 55%
    16:00 +20°C° 0 mm 1 m/s 735 mmHg 59%
    17:00 +20°C° 0 mm 1 m/s 735 mmHg 63%
    18:00 +19°C° 0 mm 1 m/s 735 mmHg 67%
    19:00 +18°C° 0 mm 1 m/s 735 mmHg 71%
    20:00 +15°C° 0 mm 1 m/s 736 mmHg 74%
    21:00 +13°C° 0 mm 2 m/s 736 mmHg 77%
    22:00 +13°C° 0 mm 2 m/s 736 mmHg 75%
    23:00 +13°C° 0 mm 2 m/s 736 mmHg 73%

    11 Junho, Quinta-feira

    Tempo Temperatura Precipitação Vento Pressão Humidade
    00:00 +13°C° 0 mm 2 m/s 736 mmHg 71%
    01:00 +13°C° 0 mm 2 m/s 736 mmHg 74%
    02:00 +13°C° 0 mm 2 m/s 736 mmHg 76%
    03:00 +12°C° 0 mm 2 m/s 736 mmHg 79%
    04:00 +13°C° 0 mm 2 m/s 735 mmHg 79%
    05:00 +14°C° 0 mm 2 m/s 735 mmHg 79%
    06:00 +14°C° 0 mm 2 m/s 735 mmHg 79%
    07:00 +16°C° 0 mm 3 m/s 735 mmHg 74%
    08:00 +17°C° 0 mm 4 m/s 734 mmHg 70%
    09:00 +17°C° 0 mm 5 m/s 734 mmHg 65%
    10:00 +17°C° 0.2 mm 6 m/s 734 mmHg 67%
    11:00 +17°C° 0.2 mm 6 m/s 734 mmHg 69%
    12:00 +17°C° 0.2 mm 7 m/s 733 mmHg 71%
    13:00 +16°C° 0.7 mm 6 m/s 733 mmHg 77%
    14:00 +14°C° 0.7 mm 5 m/s 733 mmHg 84%
    15:00 +13°C° 0.7 mm 5 m/s 733 mmHg 91%
    16:00 +13°C° 0.6 mm 5 m/s 733 mmHg 90%
    17:00 +14°C° 0.6 mm 5 m/s 733 mmHg 88%
    18:00 +14°C° 0.6 mm 5 m/s 733 mmHg 87%
    19:00 +13°C° 0.2 mm 4 m/s 734 mmHg 88%
    20:00 +13°C° 0.2 mm 4 m/s 734 mmHg 90%
    21:00 +12°C° 0.2 mm 3 m/s 734 mmHg 91%
    22:00 +12°C° 0.4 mm 3 m/s 734 mmHg 92%
    23:00 +12°C° 0.4 mm 3 m/s 735 mmHg 93%
    Mostrar mais